Flag for Mauritania Weather past 2 weeks in Nouakchott, Mauritania

Now
59 °F

Clear.


Feels Like: 58 °F
Forecast: 59 / 81 °F
Wind: 8 mph from Northeast

Location: Nouakchott Airport

Current Time: Dec 28, 2014 at 9:30:07 AM

Latest Report: Dec 28, 2014 at 9:00 AM


Visibility: 4 mi

Pressure: 30.15 "Hg

Humidity: 29%

Dew point: 27 °F

Location of NouakchottLocation

Historic Weather in Nouakchott — Graph

°F

Nouakchott temperature yesterday

Maximum temperature yesterday: 82 °F (at 3:30 PM)
Minimum temperature yesterday: 66 °F (at 7:00 AM)
Average temperature yesterday: 74 °F

Past Weeks' High & Low Weather Summary

 TemperatureHumidityPressure
High102 °F (Dec 14, 2:30 PM)56% (Dec 22, 9:00 PM)32.96 "Hg (Dec 22, 9:00 PM)
Low52 °F (Dec 28, 7:30 AM)5% (Dec 14, 2:30 PM)29.89 "Hg (Dec 22, 2:00 PM)
Average72 °F22%30.02 "Hg
* Reported Dec 13 8:00 AM — Dec 28 8:30 AM, Nouakchott, Weather by CustomWeather, © 2014

Note: Actual official high and low records may vary slightly from our data, if they occured in-between our weather recording intervals... More about our weather records

Advertising

Nouakchott weather history for previous 24 hours

 ConditionsComfort  
Time TempWeatherWind HumidityBarometerVisibility
8:30 AM
Dec 28
55 °FClear.7 mph33%30.12 "Hg4 mi
8:00 AM52 °FClear.7 mph38%30.12 "Hg4 mi
7:30 AM52 °FClear.7 mph35%30.09 "Hg4 mi
7:00 AM54 °FClear.8 mph33%30.09 "Hg4 mi
6:30 AM55 °FClear.7 mph31%30.09 "Hg4 mi
6:00 AM55 °FClear.7 mph31%30.09 "Hg4 mi
5:30 AM57 °FClear.7 mph29%30.07 "Hg4 mi
5:00 AM61 °FClear.8 mph25%30.07 "Hg4 mi
4:30 AM61 °FClear.9 mph25%30.07 "Hg4 mi
3:30 AM63 °FClear.10 mph22%30.07 "Hg4 mi
3:00 AM64 °FClear.12 mph21%30.07 "Hg4 mi
2:30 AM64 °FClear.12 mph21%30.07 "Hg4 mi
2:00 AM64 °FClear.10 mph21%30.07 "Hg4 mi
1:30 AM66 °FClear.13 mph19%30.07 "Hg4 mi
1:00 AM66 °FClear.15 mph18%30.07 "Hg4 mi
12:30 AM66 °FClear.13 mph18%30.09 "Hg4 mi
12:00 AM68 °FClear.14 mph17%30.09 "Hg4 mi
11:30 PM
Dec 27
68 °FLow level haze.14 mph17%30.09 "Hg3 mi
11:00 PM70 °FLow level haze.13 mph16%30.09 "Hg3 mi
10:30 PM70 °FLow level haze.12 mph16%30.09 "Hg2 mi
10:00 PM68 °FLow level haze.9 mph18%30.09 "Hg2 mi
9:30 PM70 °FLow level haze.9 mph17%30.09 "Hg2 mi
9:00 PM73 °FSandstorm.15 mph14%30.09 "Hg2 mi
8:30 PM73 °FSandstorm.13 mph14%30.07 "Hg2 mi
8:00 PM75 °FSandstorm.13 mph13%30.07 "Hg1 mi
7:30 PM75 °FSandstorm.13 mph12%30.07 "Hg1 mi
7:00 PM77 °FSandstorm.13 mph11%30.04 "Hg1 mi
6:30 PM77 °FSandstorm.15 mph11%30.04 "Hg1 mi
6:00 PM79 °FSandstorm.18 mph11%30.01 "Hg1 mi
5:30 PM79 °FSandstorm.20 mph12%30.01 "Hg1 mi
5:00 PM81 °FSandstorm.21 mph12%30.01 "Hg1 mi
4:30 PM82 °FSandstorm.18 mph11%30.01 "Hg1 mi
4:00 PM82 °FSandstorm.18 mph12%30.01 "Hg1 mi
3:30 PM82 °FSandstorm.18 mph12%30.01 "Hg1 mi
3:00 PM81 °FSandstorm.22 mph14%30.04 "Hg1 mi
2:30 PM81 °FSandstorm.21 mph13%30.04 "Hg1 mi
2:00 PM81 °FSandstorm.22 mph13%30.04 "Hg1 mi
1:30 PM81 °FSandstorm.21 mph13%30.07 "Hg1 mi
1:00 PM81 °FSandstorm.23 mph13%30.07 "Hg1 mi
12:30 PM79 °FSandstorm.23 mph13%30.09 "Hg1 mi
12:00 PM79 °FSandstorm.23 mph15%30.09 "Hg1 mi
11:30 AM77 °FSandstorm.23 mph15%30.12 "Hg1 mi
11:00 AM77 °FSandstorm.21 mph15%30.12 "Hg1 mi
10:30 AM75 °FSandstorm.22 mph15%30.12 "Hg1 mi
10:00 AM73 °FSandstorm.20 mph16%30.12 "Hg2 mi
9:30 AM72 °FClear.16 mph16%30.12 "Hg4 mi
9:00 AM70 °FClear.14 mph18%30.09 "Hg4 mi
Weather by CustomWeather, © 2014

See weather overviewHow to use our weather pages